Miscellaneous Local Product
Issued by NWS Hastings, NE

Home | Current Version | Previous Version | Graphics & Text | Print | Product List | Glossary On
Versions: 1 2 3 4 5 6 7 8 9 10 11 12 13 14 15 16 17 18 19 20 21 22 23 24 25 26 27 28 29 30 31 32 33 34 35 36 37 38 39 40 41 42 43 44 45 46 47 48 49 50
000
AXUS43 KGID 201302
MISGRI

GID CWA HOURLY WEATHER ROUNDUP
NATIONAL WEATHER SERVICE HASTINGS NE
800 AM CDT THU JUL 20 2017

NOTE: "FAIR" INDICATES FEW OR NO CLOUDS BELOW 12,000 FEET WITH NO
SIGNIFICANT WEATHER AND/OR OBSTRUCTIONS TO VISIBILITY.

...SOUTH CENTRAL NEBRASKA...

CITY           SKY/WX    TMP DP  RH WIND       PRES   REMARKS
GRAND ISLAND   CLOUDY    81  67  62 SE3       30.00R
HASTINGS       CLOUDY    76  65  68 S8        30.02F
KEARNEY        PTSUNNY   75  65  70 S10       30.01F
ORD            CLOUDY    75  66  73 N6        30.01R
YORK           CLOUDY    77  68  73 S5        29.99S
AURORA         CLOUDY    78  67  68 S6        29.99S
LEXINGTON      MOSUNNY   74  69  86 N3        30.03R
HOLDREGE       MOSUNNY   73  63  72 SE9       30.02F
HEBRON         SUNNY     79  68  69 W5        30.01R

...NEBRASKA PANHANDLE...

CITY           SKY/WX    TMP DP  RH WIND       PRES   REMARKS
CHADRON        MOSUNNY   68  65  90 VRB3      30.12R
ALLIANCE       MOSUNNY   67  64  90 N8        30.15R
SCOTTSBLUFF    CLOUDY    69  64  84 CALM      30.16R
SIDNEY         CLOUDY    70  62  76 NE3       30.17R

...WESTERN AND NORTH CENTRAL NEBRASKA...

CITY           SKY/WX    TMP DP  RH WIND       PRES   REMARKS
VALENTINE      PTSUNNY   75  65  70 N13G18    30.04R
AINSWORTH      CLOUDY    71  68  89 N6        30.08R
ONEILL         CLOUDY    74  70  87 E5        30.03R
BROKEN BOW     CLOUDY    73  65  75 N6        30.05R
IMPERIAL       CLOUDY    72  60  66 NE13      30.05F
NORTH PLATTE   CLOUDY    73  64  73 N3        30.06S
MCCOOK         MOSUNNY   74  61  63 E8        30.02R

...EASTERN NEBRASKA...

CITY           SKY/WX    TMP DP  RH WIND       PRES   REMARKS
NORFOLK        CLOUDY    78  67  68 CALM      29.99R
SO SIOUX CITY  CLOUDY    81  77  88 NW6       29.95S
TEKAMAH        MOSUNNY   82  72  71 CALM      29.95R
COLUMBUS       PTSUNNY   78  71  79 E3        29.98F
ALBION         CLOUDY    75  68  77 CALM      30.01R
OMAHA EPPLEY   PTSUNNY   84  70  62 S7        29.96R
OFFUTT AFB     MOSUNNY   79  71  76 CALM      29.97R
MILLARD        CLOUDY    85  71  64 SW3       29.96F HX  90
LINCOLN        CLOUDY    80  69  69 S8        29.98S
NEBRASKA CITY  MOSUNNY   78  74  85 CALM      30.00R
BEATRICE       SUNNY     79  70  73 CALM      30.00R
FALLS CITY     SUNNY     79  73  82 N5        29.99R

...NORTHERN KANSAS...

CITY           SKY/WX    TMP DP  RH WIND       PRES   REMARKS
GOODLAND       SUNNY     68  60  75 S5        30.06R
HILL CITY      CLOUDY    79  63  57 S7        30.01R
NORTON         SUNNY     75  57  53 CALM      30.02
PHILLIPSBURG   SUNNY     79  63  57 N3        30.01R
SMITH CENTER   SUNNY     79  64  61 S7        30.01S
HAYS           SUNNY     80  65  59 S9        30.02S
RUSSELL        SUNNY     80  65  59 S12       30.01S
CONCORDIA      SUNNY     81  68  64 S14       29.99S
SALINA         SUNNY     85  68  56 S18       30.00F
TOPEKA         SUNNY     81  73  76 SW8       30.02S



USA.gov is the U.S. government's official web portal to all federal, state and local government web resources and services.